"Pseudo-MPEC" for P10OArA

Created 2019 Jun 15 19:07:51 UT using Find_Orb

Click here for an explanation of pseudo-MPECs

 
 Astrometry: 
     P10OArA  C2019 06 023$*QsK6`$s?NGvwD+sCM=@!,gyj:Y_N^C%1n+!.dtM8v#5@.cc6]F51
     P10OArA  C2019 06 027gKj1eJp9.msAstrometry?a$@JhnwZjUJdc3MSm1kZ65k!_;oG.F51
     P10OArA  C2019 06 02h@JF:ticK#-MrD`ywTdBhXZV=O%?8m_bmT66=a:$Bgvf(Pc\:,$oF51
     P10OArA  C2019 06 02^K[hPTwnhDHX[??OCat'DJkZdQ_Yow^*?49Ee-gd/EEN?tqjEbioF51
     P10OArA ^C2019 06 05.38626815 53 00.020-31 30 12.76   ~659q 20.49GVNEOCP568
     P10OArA ^C2019 06 05.38721615 52 59.943-31 30 11.86   ~659q 20.65GVNEOCP568
     P10OArA ^C2019 06 05.38816515 52 59.866-31 30 10.97   ~659q 20.60GVNEOCP568
     P10OArA |C2019 06 08-#4^G-:,kYt*Y:kF$FINredacted;ewEAE-0o:h)x*P_x6QX15kK807
     P10OArA |C2019 06 08'7O']R0H)dnJc!5Xp#;H-F.,\9m(/rc!k8SU`\s.a\dP;ZS0\:Vj807
     P10OArA |C2019 06 089]`f'3O\4ttB)4Xw?_aoTuW=uqh9j(%q;/S*]'LA*C9$\Tsj)P/:807
     P10OArA HC2019 06 09G*pL0.TiZJxgT6oZWedT$h72';F6/mt16@/%TYXAgH6!%!click?691
     P10OArA HC2019 06 09YYbJk$R`$Bpqqv(qfkV9#RZKh[PD!d#c4IA@/E=Yp4/R_uU@ge3D691
     P10OArA HC2019 06 09qnp`)here^^;GSdBMNADafor7Xqjrly83KX6s(P#(4aG)cTH_[v'691
     P10OArA KC2019 06 1178..0UaB(T!\FXe4tf=]@eB!;I'SB@;**JlamLiGBj*h#Iw5sZ/9691
     P10OArA KC2019 06 11V0TZlaexplanationVf#`JM,1@XBELBHuxEdrYs1i]?#)'Yo^@t1691

Station data:
(568) Mauna Kea  (N19.826116 W155.472200)  US/Hawaii.
(691) Steward Observatory, Kitt Peak - Spacewatch  (N31.962174 W111.600327)
   US/Arizona.  Observer J. V. Scotti. 0.9-m f/3 reflector + CCD.
(807) Cerro Tololo Observatory, La Serena  (S30.169136 W70.805900)  Chile.
(F51) Pan-STARRS 1, Haleakala  (N20.707235 W156.255910)  US/Hawaii.
   Observers N. Primak, A. Schultz, S. Watters, J. Thiel, T. Goggia. Measurer
   PS1 Science Consortium. 1.8-m Ritchey-Chrétien + CCD.

Orbital elements:  P10OArA
   Perihelion 2020 Apr 15.976474 +/- 1.42 TT = 23:26:07 (JD 2458955.476474)
Epoch 2019 Jun 11.0 TT = JDT 2458645.5   Earth MOID: 0.6457   AutoNEOCP
M 242.33545113 +/- 0.52             (J2000 ecliptic)
n   0.37959186 +/- 0.000434         Peri.  117.70950 +/- 0.45
a   1.88911378 +/- 0.00144          Node   264.80805 +/- 0.06
e   0.1728278 +/- 0.000757          Incl.   19.51639 +/- 0.08
P   2.60/948.37d           H 18.5   G  0.15   U  7.6  
q 1.56262221 +/- 0.000286    Q 2.21560534 +/- 0.00311
From 15 observations 2019 June 2-11; mean residual 0".25
Residuals in arcseconds: 
190602 F51  .01+  .03-    190605 568  .07-  .12+    190609 691  .10-  .51+    
190602 F51  .06+  .05-    190605 568  .07-  .10+    190609 691  .15+  .90-    
190602 F51  .03+  .02-    190608 807  .05-  .17-    190609 691  .52+  .48+    
190602 F51  .04+  .01+    190608 807  .07-  .19-    190611 691  .32-  .18+    
190605 568  .08-  .13+    190608 807  .13-  .11-    190611 691  .15+  .06-    

Ephemerides (geocentric):
Date (UTC) HH   RA              Dec         delta   r     elong  mag " sig PA
---- -- -- --  -------------   -----------  ------ ------ -----  --- ---- ---
2019 06 15 19  15 41 00.052   -28 38 59.74  1.1105 2.0719 154.0 21.1 1.33  58
2019 06 15 20  15 40 57.595   -28 38 18.23  1.1106 2.0719 154.0 21.1 1.34  58
2019 06 15 21  15 40 55.142   -28 37 36.73  1.1107 2.0718 153.9 21.1 1.36  58
2019 06 15 22  15 40 52.694   -28 36 55.23  1.1108 2.0717 153.9 21.1 1.37  58
2019 06 15 23  15 40 50.248   -28 36 13.73  1.1110 2.0717 153.8 21.1 1.39  58
2019 06 16 00  15 40 47.807   -28 35 32.23  1.1111 2.0716 153.8 21.1 1.40  58
2019 06 16 01  15 40 45.370   -28 34 50.74  1.1112 2.0715 153.7 21.1 1.41  58
2019 06 16 02  15 40 42.936   -28 34 09.26  1.1113 2.0715 153.7 21.1 1.43  58
2019 06 16 03  15 40 40.506   -28 33 27.77  1.1115 2.0714 153.7 21.1 1.44  58
2019 06 16 04  15 40 38.080   -28 32 46.29  1.1116 2.0713 153.6 21.1 1.46  59
2019 06 16 05  15 40 35.657   -28 32 04.81  1.1117 2.0713 153.6 21.1 1.47  59
2019 06 16 06  15 40 33.239   -28 31 23.34  1.1118 2.0712 153.5 21.1 1.49  59
2019 06 16 07  15 40 30.824   -28 30 41.87  1.1119 2.0711 153.5 21.1 1.50  59
2019 06 16 08  15 40 28.413   -28 30 00.40  1.1121 2.0710 153.4 21.1 1.52  59
2019 06 16 09  15 40 26.006   -28 29 18.94  1.1122 2.0710 153.4 21.1 1.53  59
2019 06 16 10  15 40 23.602   -28 28 37.48  1.1123 2.0709 153.3 21.1 1.55  59
2019 06 16 11  15 40 21.203   -28 27 56.03  1.1124 2.0708 153.3 21.1 1.56  59
2019 06 16 12  15 40 18.807   -28 27 14.58  1.1126 2.0708 153.2 21.1 1.58  59
2019 06 16 13  15 40 16.415   -28 26 33.13  1.1127 2.0707 153.2 21.1 1.59  59
2019 06 16 14  15 40 14.027   -28 25 51.69  1.1128 2.0706 153.2 21.1 1.61  59
2019 06 16 15  15 40 11.643   -28 25 10.25  1.1129 2.0706 153.1 21.1 1.62  59
2019 06 16 16  15 40 09.262   -28 24 28.82  1.1131 2.0705 153.1 21.1 1.64  59
2019 06 16 17  15 40 06.886   -28 23 47.39  1.1132 2.0704 153.0 21.1 1.66  60
2019 06 16 18  15 40 04.513   -28 23 05.96  1.1133 2.0704 153.0 21.1 1.67  60
2019 06 16 19  15 40 02.144   -28 22 24.54  1.1135 2.0703 152.9 21.1 1.69  60
2019 06 16 20  15 39 59.779   -28 21 43.13  1.1136 2.0702 152.9 21.1 1.70  60
2019 06 16 21  15 39 57.418   -28 21 01.72  1.1137 2.0702 152.8 21.1 1.72  60
2019 06 16 22  15 39 55.060   -28 20 20.31  1.1138 2.0701 152.8 21.1 1.73  60
2019 06 16 23  15 39 52.707   -28 19 38.91  1.1140 2.0700 152.7 21.1 1.75  60
2019 06 17 00  15 39 50.357   -28 18 57.51  1.1141 2.0700 152.7 21.1 1.77  60
2019 06 17 01  15 39 48.011   -28 18 16.12  1.1142 2.0699 152.7 21.1 1.78  60
2019 06 17 02  15 39 45.669   -28 17 34.73  1.1144 2.0698 152.6 21.1 1.80  60
2019 06 17 03  15 39 43.331   -28 16 53.35  1.1145 2.0697 152.6 21.1 1.82  60
2019 06 17 04  15 39 40.997   -28 16 11.98  1.1146 2.0697 152.5 21.1 1.83  60
2019 06 17 05  15 39 38.667   -28 15 30.60  1.1148 2.0696 152.5 21.1 1.85  60
2019 06 17 06  15 39 36.340   -28 14 49.24  1.1149 2.0695 152.4 21.1 1.87  61
2019 06 17 07  15 39 34.018   -28 14 07.88  1.1150 2.0695 152.4 21.1 1.88  61
2019 06 17 08  15 39 31.699   -28 13 26.52  1.1152 2.0694 152.3 21.1 1.90  61
2019 06 17 09  15 39 29.384   -28 12 45.17  1.1153 2.0693 152.3 21.1 1.92  61
2019 06 17 10  15 39 27.073   -28 12 03.83  1.1154 2.0693 152.2 21.1 1.93  61
2019 06 17 11  15 39 24.766   -28 11 22.49  1.1156 2.0692 152.2 21.1 1.95  61
2019 06 17 12  15 39 22.463   -28 10 41.16  1.1157 2.0691 152.2 21.1 1.97  61
2019 06 17 13  15 39 20.164   -28 09 59.83  1.1158 2.0691 152.1 21.1 1.98  61
2019 06 17 14  15 39 17.868   -28 09 18.51  1.1160 2.0690 152.1 21.1 2.00  61
2019 06 17 15  15 39 15.577   -28 08 37.19  1.1161 2.0689 152.0 21.1 2.02  61
2019 06 17 16  15 39 13.289   -28 07 55.88  1.1162 2.0689 152.0 21.1 2.04  61
2019 06 17 17  15 39 11.005   -28 07 14.58  1.1164 2.0688 151.9 21.1 2.05  61
2019 06 17 18  15 39 08.726   -28 06 33.28  1.1165 2.0687 151.9 21.1 2.07  61